Regional Weather Roundup
Issued by NWS

Home | Current Version | Previous Version | Graphics & Text | Print | Product List | Glossary On
Versions: 1 2 3 4 5 6 7 8 9 10 11 12 13 14 15 16 17 18 19 20 21 22 23 24 25 26 27 28 29 30 31 32 33 34 35 36 37 38 39 40 41 42 43 44 45 46 47 48 49 50
471
ASUS45 KABQ 251910
RWRNM
NEW MEXICO REGIONAL WEATHER ROUNDUP
NATIONAL WEATHER SERVICE ALBUQUERQUE NM
100 PM MDT SUN SEP 25 2016

NOTE: "FAIR" MEANS FEW OR NO CLOUDS BELOW 12,000 FEET AGL WITH NO
       SIGNIFICANT WEATHER OR OBSTRUCTIONS TO VISION.

      THIS PRODUCT IS RELEASED AS TWO VERSIONS.  ONE VERSION NEAR
      THE TOP OF THE HOUR CONTAINING PRELIMINARY DATA FROM ALBUQUERQUE
      AND OTHER STATIONS.  A FINAL VERSION WITH ADDITIONAL DATA IS
      ISSUED ABOUT 10 MINUTES AFTER THE HOUR.

NMZ501-503-504-510>518-252000-
NORTHWEST PLATEAU/NORTHCENTRAL MOUNTAINS

CITY           SKY/WX    TMP DP  RH WIND       PRES   REMARKS
FARMINGTON     FAIR      66  31  27 S5        30.35F
LOS ALAMOS     FAIR     N/A N/A N/A CALM      30.42F
SANTA FE       FAIR      66  32  28 CALM      30.37F
TAOS           FAIR      63  30  29 N8        30.42F
ANGEL FIRE     FAIR      56  31  38 NW3       30.49F

$$
NMZ402-403-502-505>509-252000-
WESTCENTRAL MOUNTAINS/SOUTHWEST MOUNTAINS

CITY           SKY/WX    TMP DP  RH WIND       PRES   REMARKS
GALLUP         FAIR      68  34  28 N17G25    30.35F
SILVER CITY    CLOUDY    73  33  22 SE10G20   30.23S

$$
NMZ407-409-411-412-252000-
SOUTHERN DESERTS

CITY           SKY/WX    TMP DP  RH WIND       PRES   REMARKS
DEMING         FAIR      79  34  19 NE18      30.17F
LAS CRUCES     FAIR      77  31  18 NE3       30.19F
HOLLOMAN AFB   FAIR      73  35  24 SE5       30.16R
ALAMOGORDO     FAIR      72  34  25 S5        30.18F
T OR C         FAIR      74  34  23 NE25G31   30.23F

$$
NMZ519>523-252000-
CENTRAL VALLEYS/CENTRAL HIGHLANDS

CITY           SKY/WX    TMP DP  RH WIND       PRES   REMARKS
ALBUQUERQUE    FAIR      71  36  27 E24G33    30.32F
DOUBLE EAGLE   MOSUNNY   68  36  30 E8        30.37S
MORIARTY ARPT  FAIR      65  33  29 E17G23    30.40S
CLINES CORNERS FAIR      62  36  37 E22G32    30.42S
BELEN          NOT AVBL
SOCORRO        FAIR      74  34  22 NE13G18   30.30S

$$
NMZ524>526-539-540-252000-
SOUTHCENTRAL MOUNTAINS

CITY           SKY/WX    TMP DP  RH WIND       PRES   REMARKS
RUIDOSO        FAIR      63  37  39 E13       30.39S

$$
NMZ527>531-252000-
NORTHEAST HIGHLANDS/NORTHEAST PLAINS

CITY           SKY/WX    TMP DP  RH WIND       PRES   REMARKS
LAS VEGAS      FAIR      61  32  33 NE16G25   30.45F
RATON          FAIR      64  33  31 NE14G26   30.41F
CLAYTON        FAIR      67  37  33 N24G32    30.39F

$$
NMZ532>537-252000-
EASTCENTRAL PLAINS

CITY           SKY/WX    TMP DP  RH WIND       PRES   REMARKS
TUCUMCARI      FAIR      74  37  26 NE18G33   30.32F
CANNON AFB     CLOUDY    66  41  39 NE26G33   30.30S
CLOVIS AIRPORT CLOUDY    70  43  37 NE29G36   30.31S

$$
NMZ028-029-538-252000-
SOUTHEAST PLAINS

CITY           SKY/WX    TMP DP  RH WIND       PRES   REMARKS
ROSWELL        FAIR      74  46  36 NE20G29   30.25R
ARTESIA        PTSUNNY   70  52  52 N15G25    30.23F
CARLSBAD       PTSUNNY   71  50  47 NW21      30.18F
HOBBS          PTSUNNY   68  59  73 N23G31    30.22S


$$




USA.gov is the U.S. government's official web portal to all federal, state and local government web resources and services.